GW3608 Weather Reports


Display with metric or nautical units.
time (UTC)temp
F
wind
direction
speed
MPH
gust
MPH
rain 1hr
in
rain 24hr
in
rain mn
in
humidity
%
barometer
mb
20260510123013 50 240 0.0 1.0 0.00 0.29 0.07 95 1012.6
20260510121516 50 246 0.0 1.0 0.00 0.31 0.07 95 1012.3
20260510120034 49 122 0.0 0.0 0.00 0.32 0.07 95 1012.2
20260510114522 50 122 0.0 0.0 0.00 0.34 0.07 96 1011.9
20260510113009 49 122 0.0 0.0 0.00 0.35 0.07 95 1011.9
20260510111512 49 122 0.0 0.0 0.00 0.36 0.07 96 1011.6
20260510110024 48 122 0.0 0.0 0.00 0.37 0.07 95 1011.3
20260510104523 47 122 0.0 0.0 0.00 0.39 0.07 95 1010.9
20260510103023 47 122 0.0 0.0 0.00 0.42 0.07 95 1010.8
20260510101511 46 122 0.0 0.0 0.00 0.43 0.07 95 1010.4
20260510100014 47 122 0.0 0.0 0.00 0.44 0.07 95 1010.3
20260510094529 47 122 0.0 0.0 0.00 0.44 0.07 95 1010.3
20260510093024 47 122 0.0 0.0 0.00 0.45 0.07 95 1010.2
20260510091529 47 122 0.0 0.0 0.00 0.45 0.07 95 1010.0
20260510090012 46 122 0.0 0.0 0.00 0.45 0.07 95 1009.9
20260510084514 46 122 0.0 0.0 0.00 0.46 0.07 94 1009.6
20260510083020 46 122 0.0 0.0 0.00 0.46 0.07 94 1009.6
20260510081527 46 122 0.0 0.0 0.00 0.46 0.07 94 1009.6
20260510080029 46 122 0.0 0.0 0.00 0.46 0.07 93 1009.5
20260510074517 47 122 0.0 0.0 0.00 0.46 0.07 93 1009.4
20260510073021 47 122 0.0 1.0 0.00 0.46 0.07 94 1009.2
20260510071525 48 126 0.0 1.0 0.00 0.46 0.07 93 1009.3
20260510070028 48 154 0.0 2.0 0.00 0.46 0.07 94 1009.3
20260510064530 48 242 0.0 0.0 0.00 0.47 0.07 93 1009.2
20260510063019 48 279 0.0 1.0 0.01 0.47 0.07 93 1009.4
20260510061529 49 115 0.0 2.0 0.01 0.48 0.07 93 1009.5
20260510060042 49 240 0.0 4.0 0.02 0.48 0.07 93 1009.5
20260510054528 48 139 0.0 0.0 0.05 0.48 0.07 93 1009.8
20260510053027 49 139 0.0 2.0 0.06 0.47 0.06 92 1010.3
20260510051521 49 201 0.0 0.0 0.06 0.47 0.06 92 1010.6
20260510050005 49 248 0.0 1.0 0.05 0.46 0.05 91 1010.9
20260510044506 50 265 0.0 3.0 0.02 0.43 0.02 90 1010.9
20260510043010 50 263 0.0 3.0 0.00 0.41 0.00 89 1011.2
20260510041516 50 268 0.0 7.0 0.00 0.41 0.00 90 1010.9
20260510040020 50 292 1.0 10.0 0.00 0.41 0.00 91 1010.4
20260510034504 50 198 0.0 1.0 0.00 0.41 0.41 92 1009.5
20260510033009 50 154 0.0 4.0 0.00 0.41 0.41 92 1009.3
20260510031513 50 119 0.0 1.0 0.00 0.41 0.41 91 1009.4
20260510030020 50 149 0.0 1.0 0.00 0.41 0.41 90 1009.5
20260510024520 50 227 0.0 1.0 0.00 0.41 0.41 90 1009.2
20260510023041 51 146 0.0 1.0 0.00 0.41 0.41 90 1009.0
20260510021510 50 151 0.0 2.0 0.00 0.41 0.41 90 1008.9
20260510020016 50 130 0.0 2.0 0.00 0.41 0.41 91 1009.0
20260510014522 50 227 0.0 4.0 0.00 0.41 0.41 91 1008.9
20260510013022 51 173 0.0 1.0 0.00 0.41 0.41 90 1008.8
20260510011526 51 178 0.0 2.0 0.00 0.41 0.41 90 1008.7
20260510010029 51 135 0.0 3.0 0.00 0.41 0.41 90 1008.5
20260510004527 51 192 0.0 2.0 0.00 0.41 0.41 90 1008.3
20260510003024 52 167 0.0 2.0 0.00 0.41 0.41 89 1007.9
20260510001526 53 145 0.0 2.0 0.00 0.41 0.41 89 1008.1
20260510000026 53 144 0.0 6.0 0.00 0.41 0.41 89 1008.0
20260509234527 53 235 0.0 5.0 0.00 0.41 0.41 89 1007.8
20260509233029 53 170 0.0 0.0 0.00 0.41 0.41 89 1007.7
20260509231522 53 164 0.0 2.0 0.00 0.41 0.41 89 1007.5
20260509230024 53 173 0.0 2.0 0.00 0.41 0.41 89 1007.6
20260509224510 53 181 0.0 6.0 0.00 0.41 0.41 90 1007.9
20260509223020 53 266 0.0 4.0 0.00 0.41 0.41 90 1007.9
20260509221524 53 184 1.0 5.0 0.00 0.41 0.41 90 1007.6
20260509220025 52 167 0.0 6.0 0.00 0.41 0.41 91 1007.7
20260509214510 52 139 0.0 3.0 0.00 0.41 0.41 92 1007.8
20260509213016 52 306 0.0 6.0 0.00 0.41 0.41 93 1007.9
20260509211545 52 213 0.0 6.0 0.00 0.41 0.41 94 1008.0
20260509210022 51 251 0.0 5.0 0.00 0.41 0.41 94 1008.2
20260509204526 51 167 0.0 3.0 0.01 0.41 0.41 94 1008.3
20260509203031 51 228 0.0 2.0 0.01 0.41 0.41 95 1008.4
20260509201521 50 111 0.0 2.0 0.01 0.41 0.41 94 1008.5
20260509200025 50 154 0.0 2.0 0.02 0.41 0.41 94 1008.6
20260509194524 50 139 0.0 2.0 0.03 0.40 0.40 94 1008.8
20260509193025 50 169 0.0 3.0 0.03 0.40 0.40 94 1008.9
20260509191519 50 131 0.0 3.0 0.04 0.40 0.40 94 1009.0
20260509190022 50 137 0.0 2.0 0.04 0.39 0.39 93 1009.1
20260509184525 50 192 0.0 3.0 0.02 0.37 0.37 93 1009.1
20260509183024 50 157 0.0 3.0 0.02 0.37 0.37 93 1009.0
20260509181529 50 140 0.0 4.0 0.01 0.36 0.36 93 1009.1
20260509180018 50 134 0.0 5.0 0.00 0.35 0.35 93 1009.0
20260509174521 50 161 0.0 1.0 0.00 0.35 0.35 93 1009.0
20260509173025 50 253 0.0 3.0 0.00 0.35 0.35 93 1009.0
20260509171526 49 146 0.0 3.0 0.01 0.35 0.35 93 1009.0
20260509170031 49 178 0.0 2.0 0.01 0.35 0.35 93 1009.0
20260509164517 49 129 0.0 2.0 0.01 0.35 0.35 93 1009.1
20260509163029 50 261 0.0 0.0 0.01 0.35 0.35 93 1009.1
20260509161526 50 184 0.0 1.0 0.01 0.34 0.34 93 1009.2
20260509160028 49 167 0.0 2.0 0.01 0.34 0.34 93 1009.4
20260509154526 50 152 0.0 1.0 0.02 0.34 0.34 94 1009.5
20260509153024 49 128 0.0 4.0 0.04 0.34 0.34 94 1009.6
20260509151523 49 153 0.0 4.0 0.04 0.33 0.33 94 1009.9
20260509150027 49 155 0.0 3.0 0.05 0.33 0.33 94 1010.0
20260509144528 48 127 0.0 3.0 0.05 0.32 0.32 94 1010.2
20260509143030 48 140 0.0 4.0 0.04 0.30 0.30 94 1010.2
20260509141526 48 201 0.0 3.0 0.04 0.29 0.29 94 1010.2
20260509140024 47 208 0.0 1.0 0.05 0.28 0.28 94 1010.2
20260509134512 47 174 0.0 2.0 0.06 0.27 0.27 94 1010.2
20260509133015 47 186 0.0 1.0 0.07 0.26 0.26 94 1010.3
20260509131504 47 129 0.0 1.0 0.08 0.25 0.25 94 1010.4
20260509130011 47 136 0.0 1.0 0.07 0.23 0.23 94 1010.5
20260509124507 47 136 0.0 1.0 0.07 0.21 0.21 94 1010.5